Wind_Speed
43 38 38 36 38 33 30 33 33 36 37 37 37 34 33 33 30 30 28 27 27 28 28 28 28 27 26 25 25 25 23 26 24 23 22 22 22 21 22 24 25 26 27 27
46 47 36 37 41 36 41 38 40 37 33 35 37 36 35 35 32 32 31 30 29 29 29 29 30 30 29 28 28 28 28 29 28 28 28 25 27 26 28 30 31 32 33 33
43 43 47 41 41 41 41 39 39 37 36 38 40 40 36 35 35 32 32 32 30 30 30 30 31 31 32 30 30 30 31 32 32 32 32 30 31 31 33 35 36 37 37 37
48 46 43 41 40 41 43 38 38 44 43 43 40 41 36 35 35 35 34 33 32 31 30 30 31 33 34 33 32 31 32 34 35 36 36 35 35 36 37 38 40 41 40 41
51 51 50 49 43 42 38 40 40 43 45 45 42 40 37 36 35 35 35 32 31 32 32 31 30 31 34 35 34 33 33 34 36 37 38 38 38 39 41 41 43 43 44 45
53 49 48 47 45 43 45 44 41 40 43 43 40 41 43 36 33 33 32 30 31 32 32 31 29 29 30 33 35 35 36 37 37 38 40 41 41 42 43 45 46 47 48 49
56 54 51 50 49 47 47 46 47 48 47 43 42 43 42 38 34 31 29 31 33 33 32 31 30 30 30 32 34 36 37 39 41 42 43 44 45 45 46 47 48 49 49 50
55 56 53 52 50 48 48 46 45 45 45 44 44 43 40 41 39 36 35 35 35 34 33 32 32 33 34 35 37 38 39 40 42 44 45 46 47 48 49 49 50 51 52 52
58 59 57 55 53 52 51 51 47 48 48 48 48 46 44 43 44 43 40 39 39 39 38 38 37 36 37 38 39 41 44 45 45 47 48 50 50 51 51 51 52 53 53 53
56 57 57 57 56 56 54 52 51 51 52 53 51 50 48 47 47 47 46 43 42 42 43 43 42 40 40 40 41 43 44 46 48 50 51 52 51 52 52 51 51 52 52 52
62 60 58 56 57 56 57 57 56 56 55 54 54 55 52 51 51 50 49 48 47 45 45 44 43 43 44 45 44 45 47 49 52 52 52 51 51 50 49 50 51 51 52 53
53 59 60 60 57 55 55 55 56 57 58 58 58 64 57 55 55 53 52 51 48 45 43 43 43 43 42 45 48 51 54 54 53 53 50 49 47 48 50 52 53 55 56 57
52 55 57 59 59 58 61 61 62 61 62 65 63 63 65 62 57 56 55 54 51 48 47 44 43 45 48 51 54 54 52 51 51 50 51 51 52 52 52 52 53 54 54 55
48 48 52 53 51 55 57 58 60 60 61 65 66 60 61 58 54 52 48 47 47 48 49 50 50 50 54 55 52 49 50 52 52 53 53 50 49 48 48 48 48 47 49 49
51 51 48 45 47 53 56 58 59 61 58 63 53 60 58 57 55 52 52 52 52 52 51 51 54 57 56 51 47 46 44 43 43 44 45 45 44 44 44 44 44 45 46 49
48 50 49 52 48 46 50 51 51 54 54 58 53 57 61 63 63 62 57 56 57 57 56 57 57 56 54 50 47 45 45 43 40 39 39 40 42 44 45 47 48 49 50 52
51 50 50 50 53 52 55 48 48 44 44 42 47 38 48 52 52 54 53 54 55 58 61 58 54 51 50 48 47 45 41 39 39 41 44 45 46 47 47 48 50 51 52 54
51 51 52 53 51 56 51 47 43 47 44 43 42 44 45 48 50 54 53 53 53 52 50 47 47 47 48 47 44 42 41 42 44 45 46 47 48 50 52 52 53 55 57 58
50 48 51 52 52 51 45 44 39 40 42 37 39 43 45 44 45 46 49 45 45 45 43 44 45 46 46 44 43 44 46 49 50 49 50 52 54 55 57 59 61 65 67 66
50 49 47 47 48 50 48 45 43 43 45 43 41 42 43 45 45 42 42 42 43 45 45 44 42 41 40 41 43 46 48 50 52 54 56 59 61 61 63 64 67 68 68 67
52 52 50 50 52 49 48 48 46 47 42 43 40 40 42 42 37 38 39 42 44 43 42 41 40 41 43 46 49 52 53 55 57 58 60 61 63 64 66 66 66 66 67 67
54 55 53 52 53 51 51 49 47 45 46 45 44 43 40 40 40 41 40 41 42 44 46 48 50 51 53 53 55 56 58 59 60 62 64 65 67 67 67 68 69 69 69 68
61 57 51 49 46 44 44 43 44 45 45 48 50 45 45 44 42 43 44 46 48 49 51 52 53 55 57 58 58 60 60 61 64 66 67 68 68 69 70 71 72 72 72 72
64 62 63 60 55 53 53 51 50 47 47 48 50 49 50 49 50 51 49 50 51 53 55 56 57 58 60 62 63 64 65 66 67 68 68 68 70 70 73 75 75 75 75 76
67 66 65 64 64 64 59 55 54 53 52 54 53 55 57 59 59 58 57 56 57 57 58 58 60 61 63 65 66 67 67 68 69 70 71 72 72 74 76 76 76 76 78 79
64 65 66 65 60 58 60 58 60 60 58 57 57 57 60 61 61 60 60 60 60 59 60 61 62 64 64 65 66 67 68 69 71 71 72 72 74 75 75 75 76 79 80 82
Wind_Direction
223 220 218 221 229 233 232 230 232 234 236 238 238 239 242 243 244 246 245 239 239 242 249 254 254 249 247 247 248 253 259 266 271 271 272 278 283 291 289 290 296 300 304 305
222 222 218 218 220 231 229 232 236 239 243 245 245 243 244 247 246 247 247 245 243 242 248 254 257 253 249 249 248 250 254 260 265 270 271 278 284 288 288 288 292 299 304 306
222 225 230 230 224 233 236 236 237 240 249 252 248 245 243 245 249 246 248 249 248 248 249 254 258 256 251 250 252 253 254 259 263 267 271 276 280 284 286 288 294 296 300 300
219 219 224 225 225 229 228 233 238 242 239 247 245 243 243 246 248 251 250 249 252 252 252 253 256 257 254 252 253 257 259 261 264 267 271 274 276 279 281 284 287 290 293 294
224 226 228 231 227 228 227 233 237 235 237 245 248 251 241 241 246 251 251 252 252 254 254 254 255 257 254 253 255 257 259 261 262 264 267 270 273 275 277 280 282 284 286 287
222 224 226 227 228 230 232 236 240 239 241 243 244 249 247 243 246 249 252 253 254 253 255 256 257 257 258 256 255 256 258 261 263 266 268 270 271 273 275 277 277 279 280 281
224 225 226 228 230 232 233 233 236 241 244 244 244 249 251 253 251 248 248 251 253 253 255 255 257 258 258 259 259 259 261 262 264 265 267 269 272 274 274 275 275 276 278 279
232 233 232 232 235 237 241 242 244 247 248 250 251 251 249 253 255 251 246 246 250 254 257 258 259 260 261 262 263 265 265 266 266 267 269 269 270 271 273 274 275 277 278 280
232 233 233 236 238 239 240 242 244 247 249 251 252 250 250 251 254 253 255 256 256 259 263 263 261 260 260 261 264 266 267 268 270 270 269 270 270 271 273 275 276 278 280 281
237 237 238 239 239 240 241 243 245 246 248 251 252 254 254 253 257 261 261 261 260 260 261 264 268 271 272 272 271 270 271 274 273 272 272 271 272 272 273 274 274 276 278 280
234 238 239 238 239 242 244 245 246 247 246 252 259 257 255 257 259 260 263 266 266 267 266 268 270 271 273 274 274 275 278 279 277 274 271 269 269 269 270 273 276 277 279 279
237 239 239 240 242 243 243 244 245 247 247 248 254 253 259 259 259 259 262 265 268 271 270 270 270 270 270 271 274 279 284 281 276 275 274 274 273 274 275 278 278 278 278 278
231 233 234 237 239 241 242 241 242 242 244 246 248 255 253 255 259 262 265 267 269 272 273 270 267 268 272 276 280 279 274 270 269 271 271 273 275 277 276 275 276 277 278 279
232 236 240 245 252 250 248 250 248 246 247 253 254 258 258 258 260 262 265 269 271 269 268 269 273 277 280 279 273 269 267 267 268 268 271 273 274 274 273 274 277 279 279 279
238 236 238 242 247 249 247 245 246 247 249 250 254 253 253 257 261 262 263 262 264 267 270 272 273 276 274 270 272 273 272 272 271 271 272 273 273 274 276 277 278 279 279 280
237 242 242 241 244 243 243 244 245 247 249 250 253 254 252 251 253 258 262 265 267 266 265 267 268 269 269 270 270 272 277 277 275 273 273 273 273 274 275 276 277 279 281 283
241 241 242 244 244 244 247 247 252 254 249 254 253 260 261 258 257 259 263 263 262 262 264 266 267 268 268 269 271 274 270 269 273 276 277 278 278 278 279 281 282 282 282 284
235 237 239 241 243 244 248 248 257 260 255 251 248 248 253 253 254 254 257 261 261 261 263 264 266 267 270 271 270 265 267 276 282 284 283 284 285 286 285 284 284 286 289 291
231 234 238 238 241 244 242 245 244 251 248 248 245 245 248 249 250 254 255 255 258 263 264 264 265 267 270 271 270 271 277 282 285 286 287 289 288 287 287 287 290 294 297 297
230 229 229 234 238 244 243 240 245 249 250 253 253 251 251 251 254 256 259 261 259 259 259 259 261 267 272 275 277 280 282 284 285 286 288 289 289 287 288 291 293 295 295 293
230 227 232 235 237 240 240 240 247 254 257 258 255 251 249 251 254 251 252 255 257 256 258 262 266 271 276 278 282 285 285 286 286 286 287 286 287 288 290 290 290 290 289 288
233 236 239 241 241 242 244 249 251 254 259 256 253 250 249 250 252 252 252 254 255 258 261 266 272 276 280 282 284 285 285 285 284 284 284 286 288 288 287 287 286 287 286 286
234 238 240 241 247 247 245 246 249 249 253 253 252 249 247 247 247 248 254 259 263 265 268 272 276 277 279 282 283 284 283 283 282 283 284 283 283 284 285 285 285 285 285 285
233 236 237 239 242 240 241 244 250 252 254 255 256 255 254 253 253 256 259 262 264 266 268 271 275 277 278 280 281 281 281 280 281 281 281 280 281 284 285 284 283 283 283 285
231 233 236 238 239 239 240 247 254 256 258 259 257 256 258 259 262 262 262 264 266 268 270 271 273 275 276 276 277 277 277 278 279 279 280 280 281 283 282 282 283 284 285 287
234 237 241 244 248 250 249 251 252 255 257 259 263 264 264 265 266 267 269 269 269 270 271 272 273 273 272 273 273 274 275 277 277 278 279 280 282 281 281 282 284 287 287 289
Height
5792 5797 5802 5807 5810 5814 5817 5821 5825 5827 5831 5834 5837 5840 5842 5845 5848 5849 5851 5852 5852 5854 5854 5855 5857 5859 5860 5861 5862 5862 5863 5862 5862 5863 5861 5860 5859 5859 5858 5855 5854 5852 5852 5851
5786 5790 5796 5797 5803 5808 5812 5815 5819 5821 5824 5828 5830 5834 5836 5838 5842 5843 5844 5847 5848 5848 5849 5850 5852 5853 5854 5855 5856 5857 5857 5857 5857 5857 5856 5855 5853 5853 5852 5850 5848 5847 5846 5844
5780 5787 5789 5793 5797 5802 5806 5808 5810 5813 5817 5820 5824 5827 5830 5832 5833 5836 5838 5840 5842 5843 5844 5844 5846 5847 5848 5849 5850 5850 5850 5851 5851 5851 5850 5849 5848 5847 5845 5844 5842 5840 5839 5837
5770 5778 5783 5787 5791 5794 5797 5800 5802 5806 5810 5814 5817 5819 5822 5824 5825 5828 5831 5833 5834 5836 5838 5839 5839 5840 5841 5842 5843 5843 5844 5844 5844 5843 5844 5843 5841 5841 5839 5837 5835 5832 5830 5828
5765 5770 5777 5781 5787 5787 5791 5794 5797 5799 5802 5805 5809 5809 5817 5818 5819 5821 5823 5826 5827 5829 5830 5831 5832 5832 5833 5834 5835 5836 5836 5836 5836 5835 5834 5834 5832 5831 5830 5828 5827 5824 5822 5819
5754 5761 5767 5772 5777 5779 5783 5786 5788 5791 5793 5795 5801 5803 5807 5811 5812 5814 5816 5818 5819 5821 5822 5823 5824 5825 5825 5826 5827 5827 5827 5827 5827 5826 5826 5825 5823 5822 5821 5820 5817 5815 5812 5810
5744 5750 5757 5763 5767 5770 5774 5777 5780 5783 5785 5788 5793 5794 5801 5802 5806 5807 5809 5810 5811 5812 5813 5814 5815 5816 5817 5817 5817 5818 5818 5818 5817 5817 5816 5815 5813 5812 5810 5808 5806 5804 5802 5800
5738 5744 5749 5755 5760 5766 5768 5771 5775 5775 5779 5782 5783 5787 5794 5794 5795 5798 5801 5802 5803 5804 5805 5805 5806 5807 5808 5808 5808 5808 5808 5808 5807 5806 5805 5804 5802 5801 5799 5797 5795 5794 5791 5789
5727 5732 5738 5744 5749 5754 5758 5761 5767 5767 5769 5771 5775 5781 5783 5786 5785 5787 5790 5793 5794 5795 5795 5796 5797 5798 5798 5799 5799 5799 5798 5797 5796 5796 5794 5793 5791 5790 5788 5787 5785 5783 5780 5778
5716 5721 5727 5732 5737 5741 5747 5752 5754 5756 5759 5760 5764 5767 5773 5776 5778 5778 5780 5782 5783 5784 5785 5784 5785 5786 5787 5787 5788 5787 5787 5786 5785 5784 5782 5781 5779 5778 5776 5774 5772 5770 5768 5766
5703 5710 5714 5718 5724 5732 5735 5737 5742 5745 5748 5751 5755 5758 5763 5765 5766 5767 5768 5769 5770 5772 5774 5774 5775 5775 5776 5775 5775 5775 5775 5774 5773 5771 5770 5768 5767 5765 5764 5762 5760 5758 5756 5753
5694 5694 5700 5707 5713 5718 5722 5727 5730 5730 5737 5738 5741 5744 5748 5752 5754 5756 5756 5757 5758 5760 5762 5763 5765 5765 5764 5764 5764 5763 5763 5761 5759 5758 5757 5756 5754 5753 5751 5750 5747 5745 5743 5741
5678 5679 5686 5691 5698 5703 5705 5711 5716 5718 5719 5723 5726 5735 5734 5737 5741 5744 5745 5745 5747 5748 5749 5751 5752 5752 5753 5753 5752 5751 5749 5748 5747 5746 5744 5743 5741 5740 5739 5737 5735 5732 5730 5729
5664 5669 5675 5682 5691 5691 5695 5700 5704 5706 5707 5716 5715 5728 5724 5729 5732 5731 5731 5733 5734 5735 5736 5736 5737 5739 5739 5738 5738 5737 5737 5735 5734 5733 5732 5731 5729 5728 5726 5724 5722 5720 5718 5716
5653 5661 5666 5671 5673 5674 5678 5684 5687 5688 5696 5696 5709 5707 5714 5716 5718 5717 5718 5719 5720 5722 5724 5725 5726 5725 5724 5723 5723 5723 5722 5722 5721 5721 5719 5718 5717 5715 5713 5711 5709 5707 5706 5704
5644 5651 5656 5660 5662 5662 5664 5669 5675 5678 5684 5684 5692 5693 5699 5699 5698 5701 5706 5707 5708 5710 5711 5711 5711 5711 5712 5712 5711 5711 5710 5709 5709 5708 5708 5707 5705 5703 5701 5700 5698 5696 5693 5691
5636 5641 5644 5650 5652 5652 5651 5666 5663 5669 5671 5676 5677 5690 5687 5687 5689 5690 5691 5693 5694 5694 5694 5696 5698 5698 5699 5699 5699 5699 5699 5698 5698 5697 5696 5694 5693 5691 5690 5688 5686 5683 5681 5677
5623 5627 5631 5636 5638 5635 5653 5653 5657 5655 5659 5662 5666 5668 5671 5672 5675 5673 5675 5677 5678 5680 5682 5684 5684 5684 5685 5685 5686 5686 5686 5686 5685 5684 5682 5681 5679 5678 5676 5674 5672 5669 5665 5661
5612 5615 5619 5622 5624 5631 5639 5644 5645 5644 5649 5651 5654 5655 5656 5658 5658 5660 5663 5666 5667 5668 5670 5670 5671 5671 5671 5672 5672 5673 5673 5672 5671 5670 5669 5668 5666 5663 5661 5659 5655 5651 5647 5643
5600 5603 5609 5611 5613 5617 5629 5632 5634 5634 5640 5640 5641 5644 5645 5645 5647 5653 5653 5654 5655 5656 5657 5658 5659 5660 5660 5660 5661 5660 5660 5659 5658 5657 5655 5654 5651 5648 5645 5640 5636 5633 5629 5625
5587 5590 5594 5598 5602 5609 5616 5620 5623 5624 5636 5627 5630 5633 5633 5635 5639 5640 5639 5641 5643 5645 5646 5647 5648 5649 5649 5649 5648 5648 5646 5644 5643 5641 5639 5637 5634 5631 5628 5623 5620 5616 5612 5608
5577 5579 5583 5588 5594 5602 5605 5607 5614 5617 5615 5616 5617 5621 5623 5624 5628 5628 5629 5631 5633 5634 5635 5635 5636 5636 5636 5636 5635 5633 5631 5629 5626 5625 5622 5619 5617 5614 5611 5608 5603 5598 5594 5591
5564 5568 5573 5580 5588 5592 5595 5598 5599 5600 5602 5604 5607 5609 5611 5613 5616 5618 5619 5620 5621 5622 5622 5622 5623 5622 5622 5621 5619 5617 5615 5613 5610 5608 5606 5602 5599 5596 5593 5588 5584 5580 5575 5572
5550 5557 5561 5567 5576 5578 5581 5584 5587 5590 5591 5594 5596 5597 5599 5602 5603 5604 5605 5606 5607 5607 5608 5608 5608 5607 5606 5605 5603 5601 5598 5595 5592 5590 5588 5585 5581 5577 5573 5569 5565 5561 5557 5553
5536 5541 5549 5554 5562 5564 5568 5570 5571 5576 5579 5581 5582 5585 5587 5588 5589 5590 5591 5591 5591 5592 5592 5592 5591 5591 5590 5588 5585 5583 5580 5577 5574 5572 5569 5566 5563 5559 5555 5550 5546 5541 5535 5531
5525 5531 5536 5545 5548 5548 5553 5550 5551 5558 5560 5562 5567 5570 5571 5573 5573 5574 5574 5574 5575 5575 5575 5575 5574 5572 5571 5570 5567 5564 5562 5559 5556 5553 5550 5547 5543 5538 5535 5532 5528 5519 5514 5508